Weather in Petrodvortsoviy

Russia / Saint-Petersburg and Leningrad Oblast     59°52′40″N   29°51′59″E
temp.,
°C
wind,
m/s
gust,
m/s
humid.,
%
clouds,
%
prec.,
mm/h
press.,
hPa
HPBL,
m
19 april, mon
mon1900:00+4ene58815 0.0 1030117
03:00+3ene46915 0.0 103078
06:00+2ene46934 0.0 102991
09:00+4ene468072 0.0 1030145
12:00+6ene57595 0.0 1029299
15:00+7ene57522 0.0 1029361
18:00+7ene57520 0.0 1028281
21:00+5ne58622 0.0 1027112
20 april, tue
tue2000:00+3e467552 0.0 102774
03:00+2e4578100 0.0 102672
06:00+2ene4678100 0.0 102589
09:00+3e477493 0.0 1025178
12:00+5e46592 0.0 1023468
15:00+6e46505 0.0 1021542
18:00+7ese4650100 0.0 1019590
21:00+5e4665100 0.0 1018107
21 april, wed
wed2100:00+4ese4776100 0.0 1016126
03:00+3ese4690100 0.0 1014142
06:00+3ene4592100 0.1 1012159
09:00+2ne4799100 1.0 1009254
12:00+2ne4798100 1.4 1006292
15:00+3nne3492100 3.6 1005173
18:00+2n3598100 1.9 1003195
21:00+1nnw4599100 3.1 1002255
22 april, thu
thu2200:00+1nnw2499100 1.4 1002218
03:00+2wnw3598100 2.3 1003212
06:00+2w5898100 0.6 1004278
09:00+2wsw4798100 0.9 1005217
12:00+3w458897 0.1 1007311
15:00+4wnw128130 0.1 1008439
18:00+5e128088 0.0 1009120
21:00+5se339047 0.1 100926
23 april, fri
fri2300:00+4s3495100 0.3 100950
03:00+3wsw1297100 2.9 1008199
06:00+4s3492100 0.3 100760
09:00+4ssw2389100 1.2 1007158
12:00+4sse2383100 0.9 1007367
15:00+3wnw4585100 1.1 1008222
18:00+3nw2283100 0.1 100793
21:00+2ene018352 0.1 100812